User: anonymous   Login
Location: Unspecified
(0.0000°N, 0.0000°E)
Time: 14:49:08
(UTC+00:00)
Language:

NANOSAT 1B - Orbit

View from above orbital plane
View from above orbital plane
View from above satellite
View from above satellite

Ground track
Ground track

The orbit data is extracted from the following two-line orbital elements,

1 35685U 09041E   17206.16172904 +.00000063 +00000-0 +14708-4 0  9990
2 35685 098.2428 181.9039 0057785 289.9129 069.5864 14.83956934431845
Epoch (UTC): 25 July 2017 03:52:53
Eccentricity: 0.0057785
inclination: 98.2428°
perigee height: 576 km
apogee height: 657 km
right ascension of ascending node: 181.9039°
argument of perigee: 289.9129°
revolutions per day: 14.83956934
mean anomaly at epoch: 69.5864°
orbit number at epoch: 43184

The dashed part of the orbit path shows where the satellite is in the earth's shadow,  

DLR